Lapse_Rate
4.8 4.9 5.0 5.0 5.0 4.8 4.9 4.6 4.5 4.2 4.1 3.9 4.1 3.8 4.4 4.3 4.5 5.2 5.3 5.0 5.0 5.4 5.9 6.2 6.5 6.2 6.5 7.4 7.3 7.2 7.5 7.7 7.3 7.0 7.2 7.5 7.2 7.1 7.1 7.0 6.8 7.0 7.0 6.7
4.4 4.5 4.6 4.8 4.8 4.8 4.6 4.3 4.0 3.9 3.2 3.4 3.3 3.7 4.2 4.7 4.8 4.9 4.9 5.0 5.2 5.5 5.4 5.5 5.9 6.3 7.2 7.2 7.4 7.1 7.2 7.7 7.2 7.2 7.1 6.1 5.8 6.2 6.5 6.6 7.0 6.9 7.0 6.8
4.3 4.3 4.4 4.4 4.2 4.0 3.8 3.8 3.4 3.2 2.7 3.2 3.0 3.2 3.4 3.8 4.5 4.7 4.7 4.4 4.7 5.0 5.1 5.3 5.0 5.4 6.2 7.3 7.0 7.6 7.5 7.7 7.6 6.6 7.0 7.2 6.3 6.9 7.0 6.9 6.8 5.9 6.6 6.5
3.5 3.7 3.8 3.7 3.6 3.4 3.1 3.1 2.2 2.3 3.0 3.6 3.0 3.1 3.7 3.7 3.8 4.4 5.0 4.7 4.9 4.5 4.4 4.3 4.7 5.1 5.2 6.4 7.1 7.3 7.4 7.5 7.3 7.2 7.3 7.9 8.0 7.4 7.5 6.4 6.3 6.5 6.1 6.5
2.9 3.0 2.8 2.7 2.9 2.8 2.8 3.0 2.6 2.6 2.4 2.9 3.2 4.1 4.4 3.5 3.5 4.3 4.8 4.7 5.3 5.1 5.2 5.7 5.2 5.6 5.7 5.7 6.8 5.7 5.9 5.9 6.3 6.9 7.0 7.2 7.7 7.7 7.7 6.8 6.4 6.0 6.1 5.9
2.6 2.5 2.3 2.2 2.1 2.2 2.4 2.7 2.9 2.7 2.6 3.3 3.5 4.3 3.4 3.7 4.0 4.5 5.1 5.5 5.6 5.3 6.7 6.9 6.4 6.2 6.4 6.2 5.2 5.7 4.8 4.8 5.0 5.6 6.3 7.0 7.7 6.6 6.9 7.5 6.7 6.3 6.1 6.8
2.3 2.1 2.0 2.1 2.1 2.1 2.4 2.8 2.4 2.2 2.3 3.5 4.1 3.4 4.4 5.1 5.0 4.6 5.5 6.7 7.3 7.1 7.3 7.2 7.3 7.2 6.7 6.9 6.6 6.7 6.0 5.2 4.6 5.2 5.7 6.8 6.9 6.7 6.9 7.5 7.0 6.7 6.4 6.3
2.1 2.0 2.1 2.2 2.2 2.2 2.2 3.0 2.8 2.1 1.4 2.7 4.7 4.3 5.0 5.3 6.2 6.7 7.1 7.1 7.0 6.9 6.9 6.9 6.7 6.7 6.8 7.7 7.4 7.0 7.0 6.1 5.0 5.3 5.8 6.2 7.3 6.8 7.2 7.1 6.8 6.9 6.8 6.9
1.9 2.0 2.0 2.0 2.2 2.3 2.2 2.8 3.3 2.4 1.7 3.6 4.2 3.8 6.5 6.2 7.1 6.8 7.0 7.0 7.0 6.9 6.8 6.9 6.8 6.7 6.9 7.1 7.3 7.1 6.8 7.0 6.1 5.9 5.7 6.1 6.6 6.8 7.2 7.4 7.1 6.9 7.0 7.3
2.0 1.9 2.0 2.1 2.6 2.8 2.6 2.9 3.7 3.6 3.8 4.0 6.0 6.7 6.7 7.8 6.8 6.9 6.9 6.8 6.9 7.0 7.2 7.2 6.9 6.7 6.9 6.9 7.0 6.8 7.0 6.6 6.2 5.1 4.9 5.5 6.4 7.3 7.6 7.6 6.8 7.6 7.7 7.8
1.7 1.9 2.0 2.4 2.7 3.1 3.0 3.0 4.6 5.1 5.9 5.0 7.6 7.9 8.1 7.8 6.8 6.9 7.4 6.8 6.8 6.8 6.9 7.0 6.9 7.0 7.1 7.2 7.1 6.8 6.8 6.8 6.1 6.4 5.7 6.0 5.7 6.8 6.3 5.4 6.9 7.8 7.4 7.5
1.8 2.0 2.3 2.6 2.9 3.1 3.4 2.9 5.1 6.1 6.6 7.0 7.8 8.3 8.6 7.6 7.7 7.1 7.0 6.7 6.7 7.0 7.2 7.4 7.6 6.8 6.7 6.3 6.3 6.8 6.2 7.1 6.8 7.0 6.5 6.7 6.6 5.5 5.6 5.4 5.5 6.7 6.9 7.2
1.9 2.1 2.5 2.9 3.0 3.2 3.7 3.4 5.3 6.7 7.0 7.3 7.4 8.5 8.7 7.7 8.0 7.7 7.1 7.6 8.0 7.5 7.6 7.3 7.1 7.3 7.5 7.1 6.9 6.6 6.5 6.8 6.7 6.7 6.8 6.8 7.0 6.0 5.1 4.6 5.2 5.8 6.2 6.5
2.4 2.8 2.9 2.8 2.8 3.3 3.9 4.4 5.3 6.3 6.9 6.8 7.4 8.3 8.6 8.1 8.0 7.9 7.7 7.7 7.9 7.5 7.3 7.7 7.5 7.5 7.7 7.2 7.3 6.7 6.6 6.6 6.8 6.5 6.4 6.4 6.1 6.0 5.5 5.9 5.1 5.5 5.8 6.1
2.7 2.8 2.8 2.6 2.6 3.2 3.9 4.5 5.5 6.0 6.7 6.9 7.1 7.6 8.6 8.1 7.7 7.7 7.7 7.4 7.5 7.5 7.4 7.8 7.7 7.4 7.6 7.2 7.2 7.1 7.1 6.9 6.7 6.3 6.5 6.6 5.9 6.0 5.3 5.3 5.4 5.0 5.5 5.5
3.0 3.1 2.5 2.6 3.2 4.0 4.4 4.4 6.3 6.5 7.1 7.1 7.1 7.1 7.8 8.1 8.1 8.1 7.8 7.5 7.5 7.4 7.3 7.5 7.5 7.7 7.5 7.7 7.3 7.9 7.4 7.2 6.6 6.4 6.4 6.5 6.4 6.2 6.2 5.6 5.6 5.4 5.0 5.1
3.1 2.8 2.9 3.5 4.5 4.8 5.3 5.8 6.2 6.4 6.3 6.5 6.6 6.8 7.6 7.2 7.6 7.6 7.9 7.8 7.3 7.4 7.3 7.4 7.6 7.7 7.8 7.7 7.3 7.8 8.2 8.0 7.6 7.3 7.2 6.7 6.6 7.1 7.1 6.4 6.0 5.7 5.4 5.5
2.8 2.9 3.8 4.8 5.4 5.9 6.5 6.5 6.9 7.0 7.2 7.3 6.9 6.8 7.1 7.1 7.2 7.3 7.6 7.5 7.6 7.4 7.6 7.7 7.7 7.9 7.6 7.2 8.2 8.5 8.4 8.3 7.9 7.8 7.6 6.8 6.5 6.8 7.2 6.4 6.0 5.6 5.5 5.1
2.8 3.7 4.7 5.9 6.3 6.7 6.7 6.8 7.1 7.3 7.1 7.3 7.4 7.4 7.4 7.6 7.8 7.5 7.4 7.6 7.5 7.3 7.3 7.5 7.6 7.7 7.3 8.8 8.2 8.0 7.9 7.2 6.8 6.5 6.4 6.2 6.1 6.0 6.2 5.6 5.7 5.5 5.2 4.9
3.6 4.5 5.6 6.5 6.6 7.0 7.2 7.6 7.7 7.7 7.5 7.4 7.2 7.3 7.3 7.3 7.3 7.3 7.1 7.3 7.4 7.5 7.6 7.5 7.5 8.1 8.5 8.3 8.2 8.1 8.1 7.5 6.9 6.8 6.6 6.0 5.6 5.6 5.5 5.6 5.7 5.3 4.9 4.7
4.8 5.0 6.1 6.8 7.1 7.6 7.6 7.0 7.4 7.4 7.4 7.3 7.3 7.2 7.0 7.1 7.2 7.3 7.1 7.2 7.3 7.2 7.5 7.5 7.6 8.1 8.5 8.1 7.9 7.8 7.8 7.9 7.8 7.3 6.5 6.0 5.8 6.0 6.3 6.4 6.0 5.9 5.1 5.0
5.1 5.5 6.4 6.9 7.6 7.5 7.4 7.3 7.4 7.6 7.5 7.5 7.3 7.2 7.2 7.3 7.2 7.1 7.2 7.3 7.4 7.6 7.6 7.6 7.9 8.8 8.3 8.2 8.2 8.2 8.2 8.1 8.0 7.6 6.6 5.9 6.1 6.2 6.1 6.2 5.5 5.9 5.3 5.1
6.0 6.5 6.7 7.3 7.5 7.7 7.5 7.5 7.7 7.7 7.6 7.4 7.3 7.2 7.3 7.4 7.2 7.1 7.3 7.2 7.2 7.8 7.8 7.8 8.4 8.4 7.7 7.8 7.8 8.0 8.0 7.8 7.6 7.4 6.9 6.6 6.4 6.4 6.1 5.4 4.9 5.3 5.4 5.3
6.1 6.2 6.7 7.5 7.8 7.9 7.7 7.7 7.5 7.5 7.5 7.5 7.3 7.4 7.2 7.4 7.2 7.2 7.4 7.5 7.6 7.6 7.5 8.0 8.2 7.8 7.4 7.8 8.1 8.2 7.8 7.6 7.5 7.2 7.1 6.7 6.8 6.7 6.2 4.9 5.1 4.8 5.2 5.3
6.1 6.2 6.8 7.6 8.0 8.1 7.9 7.6 7.6 7.4 7.4 7.4 7.4 7.4 7.3 7.1 7.2 7.2 7.6 7.7 7.8 7.6 8.0 8.0 7.8 7.9 8.0 7.8 7.8 7.8 7.8 7.3 7.0 7.1 7.0 6.6 6.4 6.0 6.2 5.6 5.6 4.7 4.7 5.0
6.5 6.9 7.6 7.9 8.0 8.1 7.9 7.6 7.6 7.6 7.6 7.6 7.6 7.4 7.3 7.2 7.5 7.4 7.7 7.9 8.1 7.9 7.9 7.9 7.8 7.7 7.7 7.5 7.6 7.6 7.3 6.5 6.8 6.9 6.7 6.3 6.1 5.7 5.6 6.0 5.4 4.7 4.8 4.9
7.0 7.4 7.6 7.7 7.8 7.8 7.7 7.4 7.8 7.7 7.6 7.2 7.3 7.3 7.5 7.6 7.6 7.6 7.9 8.0 7.8 7.7 7.6 7.6 7.5 7.5 7.6 7.3 7.1 7.3 7.0 6.8 6.5 6.2 6.2 6.1 6.0 5.5 5.5 5.4 4.8 4.5 4.7 4.6
Wind_Speed
20 21 22 24 27 36 12 5 3 2 3 5 6 11 18 17 18 19 13 14 17 18 20 23 24 24 18 10 6 13 19 8 15 19 10 20 18 14 21 8 8 9 15 17
20 20 20 20 21 23 6 6 4 2 3 6 9 14 21 19 18 15 17 16 15 15 20 21 17 22 19 18 6 7 4 7 14 18 6 3 11 19 18 20 11 21 16 13
20 20 18 19 16 20 7 4 4 2 6 7 13 15 15 17 16 16 11 10 14 16 20 20 22 26 18 22 17 15 5 10 14 18 21 8 9 16 21 21 16 24 21 25
18 19 16 17 17 18 5 2 2 8 6 10 16 17 19 22 20 19 18 18 16 16 17 18 21 23 18 18 18 15 6 19 22 25 24 20 19 19 26 26 31 21 24 26
18 18 17 16 15 17 3 4 4 6 10 14 16 15 15 21 21 19 18 20 18 19 19 16 19 15 13 9 12 15 19 7 22 25 27 28 29 28 20 28 29 26 24 31
18 17 17 17 13 9 3 5 3 2 6 10 12 13 16 20 21 16 20 21 21 17 18 15 10 8 11 15 20 26 13 7 13 20 26 26 27 30 28 21 20 21 23 35
21 19 17 16 14 5 5 6 5 4 10 12 13 18 21 24 23 25 21 19 21 23 21 15 14 16 19 21 23 19 18 21 8 13 21 33 19 22 23 21 25 23 22 25
20 20 18 17 15 13 6 6 3 3 7 13 19 19 22 22 20 19 21 18 16 12 9 8 11 14 16 23 24 21 21 16 8 9 15 19 18 22 16 13 15 17 23 26
21 20 19 19 18 16 7 7 6 4 5 12 19 16 19 16 18 19 20 14 18 13 8 9 9 8 14 7 7 6 12 11 8 12 6 10 19 15 7 4 15 9 11 22
22 23 21 21 19 19 10 6 13 6 6 14 16 16 13 16 14 11 17 15 15 5 2 4 7 12 15 17 18 16 8 3 10 10 6 10 11 16 6 13 9 4 6 18
24 25 25 23 22 21 16 9 15 8 7 14 23 24 23 15 11 11 14 9 8 10 13 9 11 9 7 9 12 14 14 6 5 4 3 13 17 16 6 11 21 14 11 8
24 25 26 26 25 25 23 9 15 16 10 12 18 22 26 17 17 13 12 13 19 4 6 4 4 13 9 16 13 10 7 5 5 4 4 6 14 7 12 19 24 17 11 10
26 26 27 27 28 28 23 10 11 8 8 12 15 21 22 18 23 20 16 14 18 17 16 12 9 11 9 10 9 13 10 11 7 4 15 18 16 18 12 7 15 19 14 10
29 28 29 29 29 29 28 11 10 8 6 6 14 15 24 17 18 21 19 24 20 17 10 9 5 5 6 9 11 11 13 13 21 22 25 14 15 14 20 15 17 14 12 8
31 30 30 29 28 29 26 15 12 12 8 8 8 17 26 16 14 17 19 20 17 11 11 6 4 3 4 7 7 12 14 19 13 17 13 15 17 10 14 10 12 10 9 8
33 32 31 30 29 26 8 4 7 18 11 6 7 7 19 17 18 20 19 13 11 11 6 4 6 9 5 4 9 23 20 18 19 23 19 24 24 20 22 21 24 16 9 10
34 33 31 30 28 13 7 5 7 24 9 5 6 5 5 10 15 11 11 12 7 7 6 5 3 4 3 3 13 30 27 16 19 23 17 21 21 15 17 21 20 17 14 14
31 28 28 29 28 21 10 10 21 21 9 6 4 5 6 2 5 4 2 4 3 3 4 2 2 2 3 7 24 23 20 19 21 25 20 23 23 22 22 20 14 15 14 17
28 28 31 12 3 2 2 16 19 7 6 3 2 2 3 1 1 2 1 1 3 2 4 4 4 4 7 17 18 16 19 16 20 19 16 18 18 16 18 18 13 16 14 6
30 9 3 2 2 14 16 2 2 2 2 1 2 5 3 3 3 4 2 2 3 3 5 3 4 10 20 20 21 20 19 18 16 15 7 11 14 14 14 16 17 16 7 7
1 3 2 4 14 3 2 3 2 2 3 3 2 3 4 3 3 3 4 1 2 3 4 6 4 6 9 11 6 7 5 4 6 3 3 4 8 9 13 17 17 11 10 9
2 3 4 2 2 1 2 3 0 3 2 1 3 4 3 3 3 2 2 2 3 4 4 2 4 3 6 7 8 10 11 12 13 14 13 12 13 15 14 16 17 11 10 11
0 1 2 2 1 3 4 2 1 4 2 1 4 4 2 2 2 3 2 4 5 2 3 4 5 2 8 9 5 9 9 10 13 14 11 11 13 13 12 16 5 7 7 9
1 2 5 4 3 4 2 5 4 3 4 5 5 3 2 2 3 3 4 4 3 3 3 4 2 6 7 9 12 13 16 16 16 17 12 9 8 10 13 8 7 9 10 10
1 2 5 6 4 6 7 5 4 4 4 4 4 4 3 3 4 3 4 3 4 4 4 4 6 8 11 13 14 15 16 14 15 14 13 8 10 10 14 4 6 8 11 12
1 4 4 6 7 7 4 2 4 3 3 2 2 3 4 4 4 4 6 3 4 4 5 6 7 11 12 14 16 15 13 13 15 9 3 7 10 3 5 7 8 10 13 14
3 4 5 6 8 9 8 5 3 2 2 2 3 4 5 4 4 3 3 3 8 7 8 6 9 10 14 15 15 15 15 13 7 4 4 9 2 8 9 12 10 10 12 12
Wind_Direction
356 356 356 356 351 348 349 315 279 93 216 224 241 245 258 266 279 282 292 281 281 275 283 286 290 293 284 287 239 247 236 222 244 217 201 213 209 210 207 210 215 234 241 246
353 351 351 351 351 359 326 317 304 130 255 263 276 298 297 299 286 283 264 262 264 293 297 299 287 288 294 309 240 226 199 238 251 265 182 243 228 225 220 234 263 251 247 257
357 354 353 351 349 344 335 300 314 281 205 251 278 285 289 295 306 315 359 343 324 306 296 284 281 284 295 344 312 252 89 231 232 235 235 175 207 216 223 225 233 243 241 259
352 356 352 350 352 338 319 268 310 6 302 317 321 322 312 303 293 289 294 299 286 272 278 286 294 308 322 296 310 316 282 246 248 260 266 260 234 210 217 217 230 230 244 246
345 346 347 347 355 336 269 337 357 351 307 296 297 290 283 287 293 297 292 280 300 308 297 294 299 306 301 295 328 342 325 291 290 258 255 254 261 259 236 217 228 239 246 260
339 345 347 345 349 356 318 3 339 273 275 291 292 284 300 307 311 303 308 316 317 281 284 293 310 245 254 254 271 283 286 299 301 274 264 253 243 245 246 239 224 223 227 240
338 336 337 340 336 307 292 298 315 276 280 282 282 298 300 294 295 296 304 299 293 301 311 315 301 282 271 262 250 231 248 259 270 270 269 246 247 232 242 243 240 231 243 254
330 331 331 324 317 312 290 282 265 273 273 284 287 295 297 298 286 276 273 278 288 332 311 296 287 288 276 254 238 240 221 250 265 264 250 272 251 233 218 214 244 234 236 251
320 320 322 321 312 302 292 268 249 249 281 254 271 284 290 302 297 299 292 303 326 319 272 269 254 255 282 273 287 212 232 259 261 269 263 249 234 239 200 143 254 191 236 251
317 315 314 313 312 304 287 277 273 262 261 264 268 261 272 277 292 293 292 293 295 264 271 277 262 265 264 265 271 272 269 228 248 257 277 299 317 255 168 214 260 190 264 254
314 311 309 306 305 303 294 276 269 252 264 270 266 269 267 267 263 269 280 305 263 255 256 266 260 247 282 291 311 310 282 259 255 236 245 263 344 332 28 324 335 347 338 351
306 304 304 303 300 298 297 282 271 259 253 264 283 268 261 263 264 260 255 249 265 284 295 243 275 287 282 280 281 285 297 302 303 251 245 240 285 248 318 325 316 327 340 339
304 306 301 298 297 296 291 284 283 285 271 271 256 259 270 235 238 239 251 253 252 257 252 268 267 253 274 270 271 292 282 264 265 269 251 254 278 301 280 312 304 305 314 323
304 304 299 298 298 296 294 282 274 266 272 273 267 272 265 252 245 242 237 246 254 259 265 263 260 258 228 261 273 280 272 296 274 279 275 287 262 287 273 247 254 271 265 264
298 296 294 292 293 293 295 281 265 247 232 264 256 278 265 264 256 252 240 236 240 246 257 244 239 236 255 253 269 259 258 254 257 265 291 298 287 287 291 259 242 249 276 309
296 293 291 289 289 292 306 288 232 233 225 255 244 267 263 259 245 249 243 229 233 236 248 252 236 238 251 244 259 259 257 260 252 266 276 272 275 276 270 268 278 269 254 243
297 291 287 284 282 281 263 246 298 311 331 280 276 284 240 244 245 235 240 240 234 233 249 229 211 230 234 273 259 263 264 279 275 271 276 286 286 274 271 264 256 269 265 246
306 298 288 282 281 281 268 256 264 267 255 224 234 260 305 206 239 212 282 228 217 194 224 209 243 305 213 249 250 266 278 271 260 262 259 261 268 271 272 272 275 253 259 254
307 299 296 287 223 233 322 302 291 248 233 244 271 267 266 358 198 100 189 47 232 251 235 209 152 219 233 246 269 268 262 275 277 280 270 272 264 274 289 277 265 262 256 186
304 305 299 259 30 319 304 207 314 7 0 351 255 310 313 298 202 183 183 162 230 236 219 153 218 249 255 269 269 269 271 274 282 289 325 356 344 327 320 295 285 273 206 171
291 315 272 352 336 318 283 281 255 225 256 191 236 262 306 204 236 222 212 218 224 243 189 192 225 253 251 272 347 336 358 322 312 334 304 313 300 294 292 296 273 259 191 172
302 289 320 335 306 279 286 258 288 227 291 298 295 323 311 305 303 268 188 263 225 257 133 248 252 272 35 9 358 347 343 336 324 307 282 284 293 293 295 290 285 246 177 152
244 18 291 263 255 270 246 250 255 316 300 197 310 302 300 296 255 270 259 237 239 147 221 230 241 1 9 337 327 336 330 326 312 306 294 277 276 282 300 297 221 127 124 144
353 318 282 247 233 244 289 319 318 333 307 321 310 282 255 245 259 259 257 237 298 261 248 249 324 15 293 347 351 341 329 327 319 306 295 297 324 313 296 296 176 161 156 154
246 235 248 236 256 297 295 297 303 359 352 13 324 289 246 227 257 235 270 255 243 235 247 327 352 349 356 346 334 329 318 321 309 304 305 313 318 303 281 166 147 151 133 132
241 242 261 264 275 281 324 338 294 20 25 294 226 260 266 244 232 227 228 247 247 319 336 347 343 351 344 331 321 317 315 314 309 309 337 314 286 269 47 82 101 106 115 128
227 243 231 265 278 276 284 329 339 44 345 280 280 257 238 303 260 262 245 279 325 332 324 329 336 342 327 319 317 322 314 312 301 15 348 291 84 80 101 107 117 121 107 111